This is the latest recevied weather packets stored in our database for station/object HK4DAP-11. If no packets are shown the sender has not sent any weather packets the latest 10 day(s).
| Time | Temp. | Humidity | Pressure | Rain* | Wind** | Luminosity | Snow |
|---|---|---|---|---|---|---|---|
| 1787636973 | 26.11° C | 68% | 850 hPa | - | - | - | - |
| 1787636673 | 26.11° C | 68% | 849.8 hPa | - | - | - | - |
| 1787636373 | 25.56° C | 68% | 849.7 hPa | - | - | - | - |
| 1787635771 | 26.67° C | 68% | 849.9 hPa | - | - | - | - |
| 1787635471 | 26.67° C | 67% | 850 hPa | - | - | - | - |
| 1787635171 | 26.67° C | 67% | 850.1 hPa | - | - | - | - |
| 1787634871 | 26.11° C | 67% | 850.3 hPa | - | - | - | - |
| 1787634571 | 25.56° C | 69% | 850.5 hPa | - | - | - | - |
| 1787634271 | 26.11° C | 69% | 850.6 hPa | - | - | - | - |
| 1787633971 | 26.11° C | 68% | 850.8 hPa | - | - | - | - |
| 1787633670 | 26.11° C | 67% | 850.9 hPa | - | - | - | - |
| 1787633370 | 26.67° C | 67% | 851 hPa | - | - | - | - |
| 1787633070 | 26.11° C | 67% | 851.1 hPa | - | - | - | - |
| 1787632770 | 26.67° C | 67% | 851.1 hPa | - | - | - | - |
| 1787632470 | 26.67° C | 67% | 851.2 hPa | - | - | - | - |
| 1787632170 | 26.11° C | 67% | 851.4 hPa | - | - | - | - |
| 1787631870 | 26.11° C | 67% | 851.4 hPa | - | - | - | - |
| 1787631569 | 26.67° C | 65% | 851.4 hPa | - | - | - | - |
| 1787631269 | 26.67° C | 66% | 851.5 hPa | - | - | - | - |
| 1787630970 | 26.11° C | 66% | 851.5 hPa | - | - | - | - |
| 1787630669 | 26.67° C | 66% | 851.5 hPa | - | - | - | - |
| 1787630369 | 26.11° C | 68% | 851.6 hPa | - | - | - | - |
| 1787630069 | 26.11° C | 68% | 851.6 hPa | - | - | - | - |
| 1787629769 | 26.11° C | 68% | 851.7 hPa | - | - | - | - |
| 1787629468 | 26.11° C | 67% | 851.6 hPa | - | - | - | - |
* Rain since midnight (hover to see other rain measurements)
** Current wind speed in m/s (hover to see current wind gust speed)